Hourly Data Report for October 20, 2012

All times are specified in Local Standard Time (LST). Add 1 hour to adjust for Daylight Saving Time where and when it is observed.

ST LEONARD CS
NEW BRUNSWICK

47°09'28.050" N
67°49'55.014" W
245.00 m
810I001
71019
WIY

Download Data

Hourly Data (October 2012)
Hourly Data Report for October 20, 2012
Temp Definition
°C
Dew Point Temp Definition
°C
Rel Hum Definition
%
Wind Dir Definition
10's deg

Wind Spd Definition
km/h
Visibility Definition
km
Stn Press Definition
kPa
Hmdx Definition


Wind Chill Definition


Weather Definition


TIME
00:00 9.1 7.1 87 10 15   98.59     LegendNANA
01:00 9.5 8.7 95 10 20   98.38     LegendNANA
02:00 10.6 10.0 96 12 19   98.39     LegendNANA
03:00 11.2 10.7 97 12 17   98.24     LegendNANA
04:00 12.0 11.3 95 13 19   98.19     LegendNANA
05:00 12.5 11.7 95 13 17   98.16     LegendNANA
06:00 12.9 12.2 96 12 15   98.12     LegendNANA
07:00 13.4 12.7 96 13 15   98.15     LegendNANA
08:00 13.4 12.7 96 12 17   98.09     LegendNANA
09:00 14.0 13.2 95 12 15   98.06     LegendNANA
10:00 14.4 13.6 95 12 17   97.99     LegendNANA
11:00 15.6 14.7 94 13 19   97.96     LegendNANA
12:00 16.2 15.3 94 13 13   97.84     LegendNANA
13:00 16.3 15.4 94 12 15   97.68     LegendNANA
14:00 16.2 15.5 96 12 20   97.52     LegendNANA
15:00 16.3 15.5 95 13 17   97.53     LegendNANA
16:00 16.2 15.5 96 13 11   97.49     LegendNANA
17:00 16.3 15.6 96 14 13   97.47     LegendNANA
18:00 16.4 15.8 96 14 9   97.45     LegendNANA
19:00 16.6 15.9 96 15 15   97.41     LegendNANA
20:00 16.4 15.8 96 14 11   97.34     LegendNANA
21:00 16.5 15.9 96 15 11   97.30     LegendNANA
22:00 16.5 15.9 96 16 13   97.27     LegendNANA
23:00 16.2 15.6 96 16 11   97.29     LegendNANA

Notes on Data Quality.

Legend

  • E = Estimated
  • M = Missing
  • NA = Not Available
  • ‡ = Partner data that is not subject to review by the National Climate Archives
Date modified: